星链-35844(STARLINK-35844)

导读

STARLINK-35844是美国SpaceX公司星链(Starlink)卫星互联网星座中的一员,于2025年12月4日由美国发射入低地球轨道。作为星链大规模组网的组成部分,它承担着为全球提供高速宽带互联网接入服务的任务,尤其助力改善偏远及网络覆盖薄弱地区的连接。星链星座目前已成为全球规模最大的低轨卫星群,STARLINK-35844的入轨进一步拓展了星座覆盖能力,推动全球互联网络布局完善,但也持续引发关于太空轨道资源利用与天文观测干扰的讨论。

Basic Information
目录编号:
66880
目录名称:
STARLINK-35844
国际标识:
2025-283C
轨道中心:
EARTH
卫星名称:
星链-35844
卫星全名:
星链-35844(STARLINK-35844)
卫星状态:
在轨 (已飞行275 天)
发射日期:
2025-12-04 UTC
国别 :
美国 (US)
星等 :
--
Orbit Information
数据来源 国际轨道数据
星历时间: 2026-09-05T15:48:56+0800
14小时前
查看轨道信息
半长轴: 6840.835km
偏心率: 0.000127
轨道倾角: 53.160°
近地点辐角 98.884°
升交点赤经 268.614°
平近点角 261.231°
近地点: 461.829km
远地点: 463.567km
周期: 93.848分钟
每日圈数: 15.344019
Detailed Information
固有亮度:
5
最大亮度:
2.5
卫星平台:
Starlink V1.0
覆盖范围:
全球
运营商:
太空探索技术公司
运营商所在国:
美国
制造商(研发单位):
太空探索技术公司
制造商所在国:
美国
使用方式:
暂无
Satellite Introduction
Starlink 计划是 SpaceX 推出的全球卫星互联网项目,通过发射低轨道卫星,为全球尤其是偏远地区提供高速、低延迟的互联网服务。自 2019 年起,Starlink 已部署数千颗卫星,旨在缩小全球数字鸿沟,推动互联网普及。该项目还为军事、航空等行业提供通信支持,带来广泛经济效益。
2D Orbit Map
3D Orbit Map
Orbit Altitude Analysis Chart
Orbit Inclination Analysis Chart
Orbit Comprehensive Analysis Chart
View Comprehensive Chart
Conjunction Data List
Event ID Objects TCA Miss Dist (km) Collision Risk Probability Collision Risk Index (CRI) Action
CDM_260908-081806-350006-688021
2026-09-08T
08:18:09+0000
2.231 km
极远距离
1.77302E-6 低风险 0.4
CDM_260908-084706-037006-688021
2026-09-08T
08:47:23+0000
2.203 km
极远距离
1.479562E-6 低风险 0.38